CubeBel-2 (EU11S)
1 57175U 23091K   26242.80678551  .00011014  00000-0  37217-3 0  9996
2 57175  97.4980 306.7528 0008871 200.9455 159.1423 15.30793019175718
RS-38S
1 57189U 23091Z   26242.81577571  .00016195  00000-0  43196-3 0  9990
2 57189  97.5028 313.8907 0007612 153.2362 206.9277 15.38195751176150
SONATE-2
1 59112U 24043Q   26242.40935485  .00055419  00000-0  57505-3 0  9994
2 59112  97.5606  37.7205 0004965 285.1299  74.9410 15.64478397139470
GRBBeta
1 60237U 24128C   26242.60759198  .00003303  00000-0  23102-3 0  9996
2 60237  61.9909 315.0711 0029955 151.0273 209.2491 15.07102943117481
Curium One
1 60242U 24128H   26242.58704700  .00006373  00000-0  36316-3 0  9999
2 60242  61.9787 302.0696 0029059 146.0559 214.2404 15.13474654117719
ROBUSTA-3A
1 60243U 24128J   26242.59491653  .00006280  00000-0  36643-3 0  9991
2 60243  61.9867 304.9343 0030988 143.1780 217.1452 15.12591121117674
CatSat
1 60246U 24125J   26242.57407250  .00095100  00000-0  82074-3 0  9997
2 60246  97.1995  96.5492 0014591 257.8568 102.1060 15.68810281119018
HYPERVIEW-1G (RS66S)
1 61772U 24199AP  26230.11543498  .07890463  24672-5  93922-3 0  9997
2 61772  97.2456 114.2453 0006603 245.8477 114.2131 16.36574258144515
AO-123
1 61781U 24199AY  26242.81465845  .00007709  00000-0  21687-3 0  9995
2 61781  97.2876 110.8186 0014781  46.3527 313.8940 15.36656140145383
LASARsat
1 62391U 24247Q   26241.96361728  .00043826  00000-0  74049-3 0  9997
2 62391  44.9717 206.2217 0007404  91.0094 269.1646 15.50936268 94757
CroCube
1 62394U 24247T   26242.17585209  .00054924  00000-0  83943-3 0  9990
2 62394  44.9694 200.9174 0007754 103.2765 256.8993 15.53632894 94834
JINJUSat 1B
1 63210U 25052A   26242.67601851  .00017602  00000-0  50920-3 0  9991
2 63210  97.3890 139.6061 0003874 142.5374 217.6140 15.35665122 81527
NUSHSAT 1
1 63211U 25052B   26242.71610080  .00021679  00000-0  56749-3 0  9995
2 63211  97.3865 140.4996 0003581 141.1373 219.0130 15.38732884 81591
TEVEL2-4
1 63213U 25052D   26242.71669442  .00020016  00000-0  55324-3 0  9995
2 63213  97.3785 139.3207 0002721 147.7891 212.3519 15.37067343 81551
TEVEL2-5
1 63214U 25052E   26242.68142929  .00019633  00000-0  54652-3 0  9994
2 63214  97.3785 139.2102 0002570 148.7488 211.3910 15.36850091 81542
TEVEL2-6
1 63215U 25052F   26242.69545265  .00019246  00000-0  53639-3 0  9990
2 63215  97.3792 139.2091 0002456 149.5072 210.6316 15.36817902 81545
TEVEL2-1
1 63217U 25052H   26242.68737369  .00018195  00000-0  51754-3 0  9997
2 63217  97.3759 138.7313 0002115 164.0187 196.1124 15.36192793 81529
TEVEL2-3
1 63218U 25052J   26242.67888405  .00018954  00000-0  53773-3 0  9991
2 63218  97.3768 138.7558 0002001 155.9261 204.2077 15.36266988 81523
TEVEL2-2
1 63219U 25052K   26242.68712635  .00018544  00000-0  52717-3 0  9996
2 63219  97.3762 138.7349 0002065 164.2796 195.8512 15.36206552 81522
TEVEL2-9
1 63237U 25052AD  26242.70004260  .00016693  00000-0  50872-3 0  9990
2 63237  97.3822 137.9510 0004205 219.7018 140.3918 15.34031379 81448
TEVEL2-7
1 63238U 25052AE  26242.69136956  .00016266  00000-0  50133-3 0  9993
2 63238  97.3822 137.8241 0004255 219.6657 140.4275 15.33677944 81431
TEVEL2-8
1 63239U 25052AF  26242.70027389  .00016291  00000-0  50225-3 0  9995
2 63239  97.3824 137.8079 0004218 221.5078 138.5844 15.33667805 81436
SPIRONE
1 66657U 25274H   26242.74806284  .00001935  00000-0  18752-3 0  9999
2 66657  97.7471 170.9827 0013307 121.8260 238.4257 14.93799219 41353
K-HERO
1 66660U 25274L   26242.79937652  .00001369  00000-0  13284-3 0  9998
2 66660  97.7479 171.2485 0015091 126.1632 234.0986 14.94194490 41376
SNUGLITE-III DURI
1 66661U 25274M   26242.78588837  .00001084  00000-0  10633-3 0  9994
2 66661  97.7477 171.2559 0015658 127.1861 233.0792 14.94208118 41378
SAKHACUBE-CHOLBON
1 67290U 25313AU  26242.47871278  .00010036  00000-0  39125-3 0  9991
2 67290  97.3880 316.6266 0010623  94.5178 265.7274 15.26095721 37301
RS95S (QMR-KWT-2)
1 67291U 25313AV  26242.45070817  .00014952  00000-0  54780-3 0  9995
2 67291  97.3875 316.9595 0010079  93.0714 267.1679 15.28057309 37328
Ten-Koh2
1 68261U 25241B   26242.62541053  .00006595  00000-0  27592-3 0  9992
2 68261  51.6660 325.1244 0007255  29.3756 330.7629 15.24734374 26267
JACK-002
1 68417U 26067B   26242.82375291  .00006495  00000-0  30286-3 0  9996
2 68417  97.4641 200.5624 0003238  52.8784 307.2746 15.20206400 23282
DISCO 2
1 68431U 26067R   26242.85583080  .00007078  00000-0  33094-3 0  9990
2 68431  97.4673 200.5907 0004211  91.7732 268.3986 15.20074585 23284
HADES-SA (SpinnyONE)
1 68446U 26067AG  26242.59920933  .00017868  00000-0  79818-3 0  9991
2 68446  97.4465 199.9299 0007178 154.9507 205.2078 15.21382278 23230
PARUS-6U1
1 68456U 26067AS  26242.81407926  .00004985  00000-0  24695-3 0  9998
2 68456  97.4628 200.0935 0006240 147.1754 212.9868 15.18202422 23252
SAL-E
1 68458U 26067AU  26242.79103583  .00006631  00000-0  32262-3 0  9998
2 68458  97.4549 199.9749 0006247 154.9727 205.1811 15.18708092 23254
FSI-SAT 2
1 68792U 26088A   26242.84683043  .00003364  00000-0  22629-3 0  9998
2 68792  97.5168  30.3031 0013586 207.1631 152.8888 15.07337751 19530
OrigamiSat 2
1 68795U 26088D   26242.14131993  .00013606  00000-0  83324-3 0  9995
2 68795  97.5167  30.0152 0014803 179.6118 180.5125 15.10219275 19456
ARICA 2
1 68796U 26088E   26242.84291959  .00003840  00000-0  24665-3 0  9994
2 68796  97.5163  30.5983 0015539 177.6385 182.4920 15.08937166 19559
WASEDA-SAT-ZERO-II
1 68797U 26088F   26242.69006720  .00006379  00000-0  40226-3 0  9999
2 68797  97.5164  30.4900 0015310 177.6774 182.4529 15.09367790 19532
MANGARO-II-Piscus
1 68798U 26088G   26242.68022966  .00003854  00000-0  24522-3 0  9995
2 68798  97.5178  30.5215 0018815 181.1070 179.0120 15.09240263 19534
CO-128
1 69912U 26156AV  26242.70695073  .00001162  00000-0  12339-3 0  9991
2 69912  97.7495 142.1938 0002126   1.0674 359.0549 14.90910274  8108
MARINA
1 69920U 26156BD  26242.66426463  .00002375  00000-0  23905-3 0  9998
2 69920  97.7460 142.2291 0007005 347.1626  12.9413 14.92113929  8103
IO-86
1 40931U          26199.45381863  .00000000  00000-0  77536-4 0    07
2 40931   6.0006 322.6653 0012733 338.8432 273.6875 14.79294310    03
LILIUM-4                
1 71922C 26067AC  26089.50133053 -.00014632  00000+0 -74472-3 0    04
2 71922  97.4497  49.1617 0004341   5.9603 355.7042 15.16896692    16
